This is the latest recevied weather packets stored in our database for station/object KB1FFS. If no packets are shown the sender has not sent any weather packets the latest 10 day(s).
| Time | Temp. | Humidity | Pressure | Rain* | Wind** | Luminosity | Snow |
|---|---|---|---|---|---|---|---|
| 1787769706 | 33.89° C | 51% | 1016.4 hPa | 0 mm | - | 268 W/m² | - |
| 1787769404 | 33.33° C | 50% | 1016.3 hPa | 0 mm | - | 242 W/m² | - |
| 1787769099 | 32.78° C | 51% | 1016.4 hPa | 0 mm | - | 244 W/m² | - |
| 1787768794 | 32.78° C | 52% | 1016.3 hPa | 0 mm | - | 249 W/m² | - |
| 1787768490 | 32.78° C | 52% | 1016.6 hPa | 0 mm | - | 230 W/m² | - |
| 1787768186 | 32.22° C | 52% | 1016.7 hPa | 0 mm | - | 182 W/m² | - |
| 1787767882 | 32.22° C | 52% | 1016.6 hPa | 0 mm | - | 144 W/m² | - |
| 1787767577 | 32.22° C | 52% | 1016.4 hPa | 0 mm | - | 103 W/m² | - |
| 1787767276 | 32.22° C | 52% | 1016.4 hPa | 0 mm | - | 89 W/m² | - |
| 1787766974 | 32.78° C | 51% | 1016.4 hPa | 0 mm | - | 94 W/m² | - |
| 1787766668 | 32.78° C | 51% | 1016.5 hPa | 0 mm | - | 111 W/m² | - |
| 1787766363 | 32.78° C | 51% | 1016.7 hPa | 0 mm | - | 129 W/m² | - |
| 1787766061 | 33.33° C | 51% | 1016.4 hPa | 0 mm | - | 139 W/m² | - |
| 1787765758 | 33.33° C | 50% | 1016.6 hPa | 0 mm | - | 152 W/m² | - |
| 1787765454 | 34.44° C | 49% | 1016.7 hPa | 0 mm | - | 155 W/m² | - |
| 1787765153 | 34.44° C | 49% | 1016.6 hPa | 0 mm | - | 155 W/m² | - |
| 1787764849 | 35° C | 48% | 1016.7 hPa | 0 mm | - | 145 W/m² | - |
| 1787764544 | 35° C | 47% | 1016.6 hPa | 0 mm | - | 145 W/m² | - |
| 1787764244 | 35° C | 49% | 1016.5 hPa | 0 mm | - | 153 W/m² | - |
| 1787763940 | 33.89° C | 49% | 1016.6 hPa | 0 mm | - | 201 W/m² | - |
| 1787763636 | 33.89° C | 49% | 1016.5 hPa | 0 mm | - | 201 W/m² | - |
| 1787763331 | 33.89° C | 49% | 1016.6 hPa | 0 mm | - | 201 W/m² | - |
| 1787763030 | 33.89° C | 49% | 1016.5 hPa | 0 mm | - | 201 W/m² | - |
| 1787762725 | 33.89° C | 49% | 1016.5 hPa | 0 mm | - | 201 W/m² | - |
| 1787762424 | 33.89° C | 49% | 1016.4 hPa | 0 mm | - | 201 W/m² | - |
* Rain latest hour (hover to see other rain measurements)
** Current wind speed in m/s (hover to see current wind gust speed)